RH
35 37 40 46 49 65 52 52 48 39 23 14 13 11 12 12 13 12 13 13 11 9 8 7 6 7 11 35 50 60 65 75 76 75 67 76 68 64 60 65 62 68 67 66
40 43 28 26 43 52 58 61 47 36 27 23 13 11 10 11 12 11 11 12 11 10 10 9 7 8 15 32 48 57 62 74 78 78 72 68 75 68 66 59 64 60 69 71
57 35 25 23 35 53 54 58 47 43 27 23 21 20 13 9 11 10 11 11 10 10 10 10 11 8 12 29 46 55 59 69 74 74 78 73 71 72 68 67 61 65 63 72
52 42 37 26 26 38 65 45 40 39 38 42 25 54 40 23 16 11 10 11 12 11 9 12 12 13 19 23 49 54 56 65 70 74 75 75 70 71 70 70 69 66 65 64
73 60 58 44 24 24 40 35 38 35 38 50 46 79 78 39 30 13 12 13 12 14 11 15 14 13 10 52 52 56 56 60 65 72 70 74 68 66 67 67 70 67 64 65
56 43 47 45 38 21 23 33 40 36 48 82 60 54 79 55 34 20 16 16 12 15 16 12 14 13 14 26 52 55 59 60 61 69 68 70 70 66 63 63 67 71 69 67
47 66 63 62 52 30 20 56 92 69 94 91 49 52 39 42 30 23 18 19 19 23 20 16 20 31 37 35 35 38 56 60 64 64 65 68 64 62 63 60 65 70 74 76
72 77 83 80 74 61 56 45 93 81 83 73 51 62 39 29 27 28 22 21 23 31 36 42 43 43 41 42 37 36 35 33 38 59 74 68 64 70 58 60 61 67 73 74
84 75 61 55 47 52 58 56 45 84 75 83 64 35 28 23 25 23 21 32 33 35 35 38 41 42 39 40 38 37 39 42 44 42 29 39 63 67 61 65 64 62 66 72
52 73 42 44 48 60 73 67 72 91 97 93 76 46 47 50 40 33 37 36 36 36 34 33 38 39 32 29 36 41 42 46 47 49 51 47 30 44 58 56 60 60 59 59
45 65 58 43 78 99 84 80 87 90 99 98 84 84 76 76 67 47 31 28 30 32 34 37 37 34 29 24 26 29 39 42 44 46 48 53 60 48 48 54 62 60 61 63
47 61 78 94 52 48 72 98 86 97 96 97 98 100 73 75 61 55 51 42 33 32 32 31 34 32 25 24 20 22 31 35 37 39 43 49 62 76 70 57 63 68 58 61
60 78 86 67 52 36 44 67 73 84 91 98 98 97 51 59 66 48 52 44 36 30 28 28 30 31 27 21 21 18 25 30 32 34 37 43 49 64 73 80 85 70 69 67
63 68 69 85 70 50 49 35 45 73 91 75 79 63 42 42 51 43 43 37 34 27 22 23 28 28 22 19 23 20 21 23 25 33 33 41 42 52 75 74 71 91 90 83
62 92 66 60 51 45 41 34 29 36 62 79 52 35 25 27 23 47 37 34 27 24 19 20 23 23 23 17 17 15 24 21 24 28 25 34 35 44 45 55 64 63 92 95
54 78 68 83 49 46 53 44 35 30 27 28 27 28 20 18 15 16 38 32 27 27 27 23 22 19 21 20 18 16 24 22 22 23 26 27 25 42 46 55 59 58 61 84
68 79 81 87 57 61 70 44 36 31 26 24 31 26 20 29 28 38 37 35 36 35 34 33 31 32 29 26 23 26 24 24 24 24 24 25 25 30 40 57 55 58 64 72
56 58 82 85 74 97 54 30 29 32 39 43 44 42 37 34 33 38 39 36 37 35 34 34 35 33 29 28 26 26 24 24 24 25 26 26 28 28 41 46 50 59 64 67
45 60 80 88 93 64 46 37 36 42 50 45 51 45 36 35 34 36 35 35 35 38 37 36 32 28 26 25 26 26 27 26 26 25 25 26 28 28 33 40 40 48 59 63
42 55 84 88 94 92 51 47 41 43 67 34 33 40 45 44 65 52 43 40 39 38 35 35 32 32 31 28 25 27 29 31 32 30 27 26 27 30 34 40 41 48 58 70
73 84 83 95 93 73 39 39 35 77 69 35 39 43 47 60 57 52 48 45 38 38 38 35 35 36 34 33 32 32 31 33 30 30 29 29 29 29 31 37 51 59 66 76
58 79 92 89 87 84 46 43 62 49 39 41 40 46 56 58 56 53 47 46 46 46 42 43 45 44 41 39 36 38 39 35 30 28 29 29 29 28 35 49 56 62 70 85
67 52 77 73 81 48 41 47 39 39 37 36 47 48 53 52 51 51 51 51 48 48 47 44 44 44 45 45 46 45 40 36 39 32 32 31 29 33 42 54 60 69 74 96
50 45 70 64 48 46 42 39 39 42 44 42 38 41 45 56 58 55 52 50 50 47 47 47 49 53 56 56 57 57 56 58 55 48 40 34 38 40 49 58 61 66 76 97
65 55 60 62 52 50 47 45 46 45 46 51 49 50 54 54 56 53 53 52 51 50 51 57 62 64 62 61 65 65 73 74 76 74 71 64 51 42 52 64 63 63 61 64
61 61 78 74 54 58 61 66 56 53 56 56 56 55 53 55 59 57 61 64 69 74 75 75 76 77 77 76 77 78 78 77 76 77 80 79 76 81 98 100 100 100 94 94
Wind_Speed
14 9 16 16 16 16 13 18 17 18 12 21 23 19 19 13 11 15 11 9 16 19 22 24 28 33 39 37 43 44 42 42 43 38 38 31 37 36 41 35 40 35 40 41
14 15 17 16 15 17 18 20 20 20 17 21 20 25 17 17 18 20 21 13 18 14 12 9 25 28 37 32 45 45 43 42 43 39 41 38 27 32 33 39 34 42 39 42
14 13 16 19 19 18 20 21 18 19 17 19 19 18 18 22 15 23 19 14 15 14 12 10 7 17 31 28 43 45 45 44 44 40 36 32 29 24 31 36 42 37 43 42
12 16 17 18 20 20 20 20 20 21 18 13 12 13 15 9 15 21 24 15 11 12 12 7 4 5 14 29 44 48 48 45 43 41 37 40 35 28 34 33 33 37 39 44
8 12 14 13 17 21 21 17 20 16 14 4 14 3 8 12 19 17 17 11 11 11 12 9 6 3 16 20 36 42 41 41 40 41 38 37 34 34 33 30 32 39 40 44
19 15 16 15 14 15 22 18 19 16 5 7 16 7 5 5 12 8 5 8 15 13 11 10 7 6 11 7 16 35 39 41 40 35 33 33 34 33 30 30 32 34 39 43
10 13 16 17 9 11 12 6 3 6 4 5 6 7 13 7 9 14 3 4 3 2 9 9 6 13 18 27 30 10 15 25 34 38 31 30 41 37 35 33 33 32 35 36
10 6 12 12 11 10 15 14 5 8 6 3 8 4 10 14 21 13 9 6 9 16 13 14 13 10 16 23 27 26 23 16 4 16 34 54 40 38 43 33 37 35 37 41
7 6 2 12 14 7 5 2 14 1 8 2 3 5 10 10 12 16 14 13 15 15 16 13 11 15 20 24 24 23 23 24 23 18 10 5 29 37 35 37 38 33 33 34
10 7 7 12 13 7 5 8 1 4 4 3 3 2 5 18 12 13 19 16 16 14 12 13 9 12 20 24 26 24 23 24 25 25 23 17 14 9 30 37 41 42 42 37
6 3 10 7 7 10 9 5 6 3 4 2 4 5 11 17 17 15 15 15 13 12 10 8 7 14 20 22 25 25 24 24 25 25 25 24 18 11 11 19 28 33 35 31
5 3 8 12 6 11 5 6 4 2 4 2 4 4 13 17 17 19 15 16 16 9 9 9 8 13 19 22 23 24 26 24 23 22 22 24 23 19 12 11 11 20 29 31
7 5 4 9 4 11 8 2 3 4 2 1 3 2 10 11 15 16 18 15 11 12 10 7 8 8 12 13 13 14 16 17 18 19 20 21 22 22 19 15 11 12 14 27
5 2 5 4 8 11 10 11 4 3 3 2 5 9 11 7 3 4 3 12 9 9 10 7 5 5 9 13 8 6 5 8 10 9 12 15 19 18 17 18 17 15 12 13
2 1 4 9 12 14 15 14 12 4 6 4 5 9 11 8 7 10 6 4 8 9 6 6 0 5 7 7 7 10 7 9 9 7 10 10 14 15 17 19 19 18 16 13
5 3 7 6 11 12 17 14 9 9 8 9 11 11 8 8 9 7 4 6 10 15 18 16 13 8 5 6 6 10 10 12 14 15 14 12 15 14 14 14 15 17 17 19
3 1 4 5 10 14 7 3 3 5 7 4 5 6 7 13 14 15 12 15 14 12 12 13 12 10 16 23 12 9 10 13 17 19 20 19 18 20 16 12 12 16 17 15
4 2 2 4 5 4 7 14 11 5 11 12 12 15 16 14 9 15 15 10 9 10 11 10 8 15 22 25 24 18 14 15 18 20 23 25 18 19 16 11 11 12 15 16
6 3 2 2 2 8 9 3 13 12 5 12 12 12 11 12 11 9 11 7 7 8 9 12 19 20 24 28 30 27 25 22 20 21 23 26 27 23 21 15 12 12 15 18
9 5 4 3 1 3 0 5 11 7 1 14 12 7 6 6 5 4 12 9 4 10 15 16 22 24 27 32 32 30 26 24 25 23 24 27 29 28 23 19 16 12 13 16
1 2 4 2 3 6 6 10 11 3 5 19 4 6 5 1 5 5 6 7 12 15 16 22 23 20 22 26 31 28 28 28 34 29 30 28 28 29 31 27 16 10 10 14
2 3 4 1 2 6 12 10 2 8 11 7 8 4 6 7 9 6 7 6 6 8 15 20 20 21 25 27 27 22 24 34 36 37 37 37 33 32 29 21 13 10 10 13
3 3 2 5 4 10 13 9 7 7 8 11 5 6 9 11 7 8 7 8 11 14 16 18 21 22 20 21 24 25 28 30 36 38 39 40 41 34 26 20 16 12 12 12
5 5 1 5 1 8 10 12 6 7 8 9 9 8 6 6 7 11 11 9 9 15 17 22 21 20 24 26 29 31 33 30 25 29 36 37 34 31 27 24 22 19 16 16
5 4 4 7 14 11 10 7 11 12 10 7 8 8 7 7 8 7 8 9 10 18 20 20 21 24 28 28 27 25 26 28 24 24 23 24 30 33 31 30 30 27 27 23
5 9 3 6 13 12 7 9 12 11 7 7 7 8 8 8 10 10 10 11 14 17 25 24 24 25 27 29 30 28 25 25 27 27 25 26 22 15 17 20 23 20 18 16
Wind_Direction
261 255 231 224 242 257 252 239 246 246 242 222 241 246 233 215 215 246 236 228 236 241 242 242 237 240 226 186 180 182 182 186 182 185 197 204 198 201 207 206 207 211 211 209
246 249 243 233 251 252 261 261 254 267 241 252 237 237 244 219 213 221 233 233 249 234 218 232 247 231 210 185 179 181 184 183 184 184 192 203 201 205 209 212 209 213 214 211
287 255 248 232 226 249 252 258 260 266 259 258 249 247 238 239 219 216 227 219 229 223 223 226 252 232 218 188 179 181 182 185 187 187 185 190 203 209 210 214 218 214 215 215
264 267 259 236 229 226 248 259 260 271 263 262 257 266 281 274 251 224 219 225 215 224 240 200 199 344 265 201 178 180 184 183 189 186 183 183 188 199 211 215 214 217 220 218
276 312 303 277 234 222 246 248 264 271 274 334 294 67 271 284 266 243 199 208 229 219 227 209 198 179 324 176 170 179 183 184 186 189 190 187 193 197 205 215 213 215 219 222
284 264 278 274 294 252 226 239 274 249 270 281 252 242 250 223 231 281 202 216 221 220 214 230 204 144 72 109 162 171 179 185 189 189 190 193 195 201 204 206 212 211 214 219
343 29 346 18 315 285 216 99 282 252 189 226 231 260 242 228 236 232 266 306 157 335 214 206 58 67 69 63 66 96 183 187 188 185 188 219 208 206 203 204 208 208 210 212
349 354 358 338 326 317 310 183 228 211 207 222 202 250 245 221 260 278 294 116 68 58 60 67 70 73 63 64 58 55 60 73 102 203 200 208 210 211 215 216 215 213 211 213
345 315 340 331 325 306 321 222 212 263 269 65 235 245 238 246 245 256 264 60 62 70 80 66 64 69 66 60 59 54 47 41 34 28 44 188 234 227 223 222 226 223 221 219
329 316 330 351 346 40 9 353 223 129 266 149 292 352 26 26 21 68 58 51 55 55 50 54 45 54 58 58 58 59 53 45 36 29 25 7 342 309 236 231 235 236 240 239
351 315 310 347 15 8 2 23 350 324 19 319 147 94 27 20 21 33 51 48 38 38 33 56 46 50 50 48 46 47 50 48 38 24 17 17 9 347 348 247 234 235 238 241
334 270 324 103 61 68 63 18 358 36 352 2 299 94 16 7 14 10 7 13 10 19 22 25 26 57 49 42 35 29 29 33 32 25 14 13 15 13 359 332 337 258 242 243
334 337 350 331 23 6 16 11 75 246 139 58 330 239 18 357 349 0 358 345 350 345 345 10 34 26 34 40 46 35 29 27 20 10 5 1 2 8 357 348 334 289 286 255
40 311 9 8 328 324 311 307 224 149 93 223 234 291 329 319 252 251 185 314 319 312 309 332 11 30 12 1 14 35 40 15 11 8 358 352 348 347 352 337 326 321 314 293
62 249 340 327 309 300 297 309 312 264 211 164 276 307 317 299 274 203 223 259 296 302 274 284 263 342 317 336 1 3 9 356 341 343 346 336 334 325 326 322 327 318 307 307
311 297 322 323 316 346 324 305 298 307 299 286 288 284 280 327 349 358 237 340 14 26 22 14 13 360 6 1 356 340 1 8 348 333 326 324 322 303 308 315 327 332 318 295
268 89 0 289 338 331 339 294 252 263 253 249 345 310 327 18 36 65 54 43 28 13 5 9 5 0 3 355 359 28 12 355 345 333 325 320 317 313 296 294 314 326 330 315
254 256 142 271 353 4 243 321 318 330 47 33 30 15 9 11 40 67 40 26 12 355 344 339 334 332 333 331 330 327 327 325 320 319 323 318 302 309 301 287 301 311 319 323
221 172 343 121 208 269 297 11 4 338 44 38 16 351 351 3 351 351 46 27 343 322 315 310 316 309 307 306 306 306 304 302 294 289 297 302 306 301 299 285 298 305 308 314
221 138 128 26 221 281 78 300 335 334 237 2 337 331 354 358 353 308 334 338 287 281 291 292 303 307 302 294 292 291 289 289 278 277 278 286 289 295 281 282 278 282 295 305
49 5 171 209 227 272 282 19 341 61 277 316 310 309 325 257 212 253 297 297 303 306 310 309 299 287 291 301 296 269 265 262 273 276 275 275 274 281 284 276 258 265 286 299
294 178 219 138 69 287 360 346 39 252 285 289 315 311 297 281 284 281 293 287 293 296 312 316 307 299 298 300 293 276 274 274 266 270 271 268 268 273 268 257 241 253 278 297
282 196 272 169 234 314 312 281 278 284 284 284 267 279 270 281 293 305 302 313 307 299 300 304 299 297 304 313 314 291 286 294 280 263 260 262 267 260 249 236 230 238 262 274
304 2 324 353 262 294 296 298 280 300 294 291 282 285 310 320 314 303 296 315 330 322 317 316 315 313 308 310 309 307 307 316 314 286 262 261 256 249 242 234 231 228 238 248
243 318 278 280 293 288 279 283 292 285 301 309 328 307 296 295 302 320 320 320 312 309 308 309 306 302 298 299 298 297 310 314 323 312 317 312 272 252 236 231 229 228 240 241
207 241 194 248 263 267 283 307 306 323 304 353 358 341 344 349 336 330 326 336 336 324 314 307 301 298 298 298 296 297 299 300 299 296 297 301 306 286 252 247 241 238 244 245